"Sample Date","Sample Time","Sensor Name","Sample Value","Units","Flow Rate","Sample Interval","Sample Volume","Laser Status","Number Channels","Micron Size 0","Counts/Channel 0","Micron Size 1","Counts/Channel 1","Micron Size 2","Counts/Channel 2","Micron Size 3","Counts/Channel 3","Micron Size 4","Counts/Channel 4","Micron Size 5","Counts/Channel 5","Micron Size 6","Counts/Channel 6","Micron Size 7","Counts/Channel 7","Micron Size 8","Counts/Channel 8","Micron Size 9","Counts/Channel 9","Micron Size 10","Counts/Channel 10","Micron Size 11","Counts/Channel 11","Micron Size 12","Counts/Channel 12","Micron Size 13","Counts/Channel 13","Micron Size 14","Counts/Channel 14","Micron Size 15","Counts/Channel 15","Micron Size 16","Counts/Channel 16","Micron Size 17","Counts/Channel 17","Micron Size 18","Counts/Channel 18","Micron Size 19","Counts/Channel 19","Micron Size 20","Counts/Channel 20","Micron Size 21","Counts/Channel 21","Micron Size 22","Counts/Channel 22","Micron Size 23","Counts/Channel 23","Micron Size 24","Counts/Channel 24","Micron Size 25","Counts/Channel 25","Micron Size 26","Counts/Channel 26","Micron Size 27","Counts/Channel 27","Micron Size 28","Counts/Channel 28","Micron Size 29","Counts/Channel 29","Micron Size 30","Counts/Channel 30","Micron Size 31","Counts/Channel 31"
"07/05/06","20:00:01","AMMA06",52700.000,"cc",28343.406,6.00,2834.341,1,6,0.100,23870.000,0.200,23642.000,0.300,4021.000,0.500,723.000,1.000,444.000,5.000,0
"07/05/06","20:00:07","AMMA06",58817.000,"cc",28379.080,6.00,2837.908,1,6,0.100,28727.000,0.200,24531.000,0.300,4225.000,0.500,880.000,1.000,454.000,5.000,0
"07/05/06","20:00:13","AMMA06",54935.000,"cc",28315.242,6.00,2831.524,1,6,0.100,25969.000,0.200,23934.000,0.300,3900.000,0.500,731.000,1.000,401.000,5.000,0
"07/05/06","20:00:19","AMMA06",61134.000,"cc",28309.727,6.00,2830.973,1,6,0.100,30688.000,0.200,24908.000,0.300,4289.000,0.500,838.000,1.000,411.000,5.000,0
"07/05/06","20:00:25","AMMA06",53216.000,"cc",28269.691,6.00,2826.969,1,6,0.100,24966.000,0.200,23496.000,0.300,3765.000,0.500,625.000,1.000,364.000,5.000,0
"07/05/06","20:00:31","AMMA06",59460.000,"cc",28322.846,6.00,2832.285,1,6,0.100,28334.000,0.200,24632.000,0.300,4792.000,0.500,1142.000,1.000,560.000,5.000,0
"07/05/06","20:00:37","AMMA06",62917.000,"cc",28330.244,6.00,2833.025,1,6,0.100,32024.000,0.200,24917.000,0.300,4548.000,0.500,937.000,1.000,491.000,5.000,0
"07/05/06","20:00:43","AMMA06",52820.000,"cc",28330.006,6.00,2833.001,1,6,0.100,24768.000,0.200,23350.000,0.300,3724.000,0.500,630.000,1.000,348.000,5.000,0
"07/05/06","20:00:49","AMMA06",53621.000,"cc",28319.906,6.00,2831.991,1,6,0.100,24602.000,0.200,23322.000,0.300,4304.000,0.500,898.000,1.000,495.000,5.000,0
"07/05/06","20:00:55","AMMA06",54868.000,"cc",28317.313,6.00,2831.731,1,6,0.100,25065.000,0.200,23736.000,0.300,4486.000,0.500,1058.000,1.000,523.000,5.000,0
"07/05/06","20:01:01","AMMA06",59980.000,"cc",28344.713,6.00,2834.471,1,6,0.100,28957.000,0.200,24952.000,0.300,4515.000,0.500,1029.000,1.000,527.000,5.000,0
"07/05/06","20:01:07","AMMA06",60323.000,"cc",28295.512,6.00,2829.551,1,6,0.100,30091.000,0.200,24544.000,0.300,4325.000,0.500,872.000,1.000,491.000,5.000,0
"07/05/06","20:01:13","AMMA06",53436.000,"cc",28338.914,6.00,2833.892,1,6,0.100,24584.000,0.200,23425.000,0.300,4110.000,0.500,871.000,1.000,446.000,5.000,0
"07/05/06","20:01:19","AMMA06",53948.000,"cc",28316.541,6.00,2831.654,1,6,0.100,24937.000,0.200,23568.000,0.300,4143.000,0.500,841.000,1.000,459.000,5.000,0
"07/05/06","20:01:25","AMMA06",54188.000,"cc",28286.766,6.00,2828.677,1,6,0.100,24696.000,0.200,23581.000,0.300,4419.000,0.500,973.000,1.000,519.000,5.000,0
"07/05/06","20:01:31","AMMA06",52496.000,"cc",28343.943,6.00,2834.395,1,6,0.100,24355.000,0.200,22806.000,0.300,4151.000,0.500,752.000,1.000,432.000,5.000,0
"07/05/06","20:01:37","AMMA06",53977.000,"cc",28328.865,6.00,2832.887,1,6,0.100,24502.000,0.200,23652.000,0.300,4427.000,0.500,917.000,1.000,479.000,5.000,0
"07/05/06","20:01:43","AMMA06",53880.000,"cc",28269.373,6.00,2826.938,1,6,0.100,24760.000,0.200,23541.000,0.300,4262.000,0.500,859.000,1.000,458.000,5.000,0
"07/05/06","20:01:49","AMMA06",52577.000,"cc",28319.156,6.00,2831.916,1,6,0.100,23731.000,0.200,23640.000,0.300,4098.000,0.500,731.000,1.000,377.000,5.000,0
"07/05/06","20:01:55","AMMA06",56310.000,"cc",28333.119,6.00,2833.312,1,6,0.100,26284.000,0.200,24232.000,0.300,4436.000,0.500,907.000,1.000,451.000,5.000,0
"07/05/06","20:02:01","AMMA06",60301.000,"cc",28348.481,6.00,2834.848,1,6,0.100,27252.000,0.200,25397.000,0.300,5523.000,0.500,1444.000,1.000,685.000,5.000,0
"07/05/06","20:02:07","AMMA06",54033.000,"cc",28228.572,6.00,2822.857,1,6,0.100,24148.000,0.200,23972.000,0.300,4478.000,0.500,978.000,1.000,457.000,5.000,0
"07/05/06","20:02:13","AMMA06",54365.000,"cc",28298.275,6.00,2829.828,1,6,0.100,25011.000,0.200,23925.000,0.300,4222.000,0.500,767.000,1.000,440.000,5.000,0
"07/05/06","20:02:19","AMMA06",57262.000,"cc",28358.953,6.00,2835.896,1,6,0.100,25936.000,0.200,24598.000,0.300,4989.000,0.500,1123.000,1.000,616.000,5.000,0
"07/05/06","20:02:25","AMMA06",54321.000,"cc",28339.441,6.00,2833.944,1,6,0.100,24704.000,0.200,24109.000,0.300,4235.000,0.500,801.000,1.000,472.000,5.000,0
"07/05/06","20:02:31","AMMA06",53260.000,"cc",28286.072,6.00,2828.607,1,6,0.100,24047.000,0.200,23860.000,0.300,4136.000,0.500,795.000,1.000,422.000,5.000,0
"07/05/06","20:02:37","AMMA06",58945.000,"cc",28346.065,6.00,2834.607,1,6,0.100,28830.000,0.200,24691.000,0.300,4261.000,0.500,760.000,1.000,403.000,5.000,0
"07/05/06","20:02:43","AMMA06",56018.000,"cc",28316.742,6.00,2831.674,1,6,0.100,26488.000,0.200,24071.000,0.300,4214.000,0.500,797.000,1.000,448.000,5.000,0
"07/05/06","20:02:49","AMMA06",58834.000,"cc",28303.473,6.00,2830.347,1,6,0.100,27567.000,0.200,24327.000,0.300,4906.000,0.500,1371.000,1.000,663.000,5.000,0
"07/05/06","20:02:55","AMMA06",55789.000,"cc",28356.395,6.00,2835.640,1,6,0.100,26102.000,0.200,23346.000,0.300,4590.000,0.500,1156.000,1.000,595.000,5.000,0
"07/05/06","20:03:01","AMMA06",51795.000,"cc",28342.193,6.00,2834.220,1,6,0.100,24404.000,0.200,22334.000,0.300,3874.000,0.500,776.000,1.000,407.000,5.000,0
"07/05/06","20:03:07","AMMA06",51662.000,"cc",28276.240,6.00,2827.624,1,6,0.100,24059.000,0.200,22466.000,0.300,3922.000,0.500,796.000,1.000,419.000,5.000,0
"07/05/06","20:03:13","AMMA06",56404.000,"cc",28318.617,6.00,2831.862,1,6,0.100,27156.000,0.200,23380.000,0.300,4313.000,0.500,1006.000,1.000,549.000,5.000,0
"07/05/06","20:03:19","AMMA06",50704.000,"cc",28323.006,6.00,2832.301,1,6,0.100,23466.000,0.200,22164.000,0.300,3809.000,0.500,789.000,1.000,476.000,5.000,0
"07/05/06","20:03:25","AMMA06",55772.000,"cc",28302.490,6.00,2830.249,1,6,0.100,27542.000,0.200,22915.000,0.300,4071.000,0.500,794.000,1.000,450.000,5.000,0
"07/05/06","20:03:31","AMMA06",50463.000,"cc",28303.178,6.00,2830.318,1,6,0.100,23657.000,0.200,21959.000,0.300,3716.000,0.500,715.000,1.000,415.000,5.000,1.000
"07/05/06","20:03:37","AMMA06",50288.000,"cc",28346.147,6.00,2834.615,1,6,0.100,23366.000,0.200,22087.000,0.300,3720.000,0.500,672.000,1.000,443.000,5.000,0
"07/05/06","20:03:43","AMMA06",55406.000,"cc",28335.029,6.00,2833.503,1,6,0.100,27127.000,0.200,22887.000,0.300,4068.000,0.500,867.000,1.000,457.000,5.000,0
"07/05/06","20:03:49","AMMA06",58251.000,"cc",28306.072,6.00,2830.607,1,6,0.100,29612.000,0.200,23234.000,0.300,4202.000,0.500,801.000,1.000,402.000,5.000,0
"07/05/06","20:03:55","AMMA06",129861.000,"cc",28310.440,6.00,2831.044,1,6,0.100,83694.000,0.200,37629.000,0.300,6804.000,0.500,1135.000,1.000,599.000,5.000,0
"07/05/06","20:04:01","AMMA06",60577.000,"cc",28329.529,6.00,2832.953,1,6,0.100,31681.000,0.200,23540.000,0.300,4097.000,0.500,840.000,1.000,419.000,5.000,0
"07/05/06","20:04:07","AMMA06",72884.000,"cc",28268.266,6.00,2826.827,1,6,0.100,41019.000,0.200,26004.000,0.300,4515.000,0.500,875.000,1.000,471.000,5.000,0
"07/05/06","20:04:13","AMMA06",118058.000,"cc",28348.543,6.00,2834.855,1,6,0.100,75393.000,0.200,34554.000,0.300,6449.000,0.500,1090.000,1.000,572.000,5.000,0
"07/05/06","20:04:19","AMMA06",86790.000,"cc",28340.631,6.00,2834.063,1,6,0.100,51820.000,0.200,28533.000,0.300,4915.000,0.500,945.000,1.000,577.000,5.000,0
"07/05/06","20:04:25","AMMA06",63226.000,"cc",28345.541,6.00,2834.554,1,6,0.100,33466.000,0.200,24133.000,0.300,4355.000,0.500,833.000,1.000,439.000,5.000,0
"07/05/06","20:04:31","AMMA06",52308.000,"cc",28305.777,6.00,2830.578,1,6,0.100,25462.000,0.200,21867.000,0.300,3813.000,0.500,748.000,1.000,418.000,5.000,0
"07/05/06","20:04:37","AMMA06",50432.000,"cc",28300.580,6.00,2830.058,1,6,0.100,23901.000,0.200,21578.000,0.300,3806.000,0.500,737.000,1.000,410.000,5.000,0
"07/05/06","20:04:43","AMMA06",51864.000,"cc",28326.217,6.00,2832.622,1,6,0.100,24714.000,0.200,21661.000,0.300,4030.000,0.500,968.000,1.000,491.000,5.000,0
"07/05/06","20:04:49","AMMA06",61987.000,"cc",28297.752,6.00,2829.775,1,6,0.100,33143.000,0.200,23701.000,0.300,3972.000,0.500,742.000,1.000,429.000,5.000,0
"07/05/06","20:04:55","AMMA06",55970.000,"cc",28330.084,6.00,2833.009,1,6,0.100,28263.000,0.200,22340.000,0.300,4056.000,0.500,880.000,1.000,431.000,5.000,0
"07/05/06","20:05:01","AMMA06",50691.000,"cc",28292.928,6.00,2829.293,1,6,0.100,24677.000,0.200,21528.000,0.300,3501.000,0.500,631.000,1.000,354.000,5.000,0
"07/05/06","20:05:07","AMMA06",72897.000,"cc",28279.594,6.00,2827.960,1,6,0.100,41609.000,0.200,25690.000,0.300,4358.000,0.500,806.000,1.000,434.000,5.000,0
"07/05/06","20:05:13","AMMA06",52318.000,"cc",28335.684,6.00,2833.569,1,6,0.100,25839.000,0.200,21693.000,0.300,3652.000,0.500,719.000,1.000,415.000,5.000,0
"07/05/06","20:05:19","AMMA06",58649.000,"cc",28337.744,6.00,2833.775,1,6,0.100,31066.000,0.200,22676.000,0.300,3818.000,0.500,704.000,1.000,385.000,5.000,0
"07/05/06","20:05:25","AMMA06",65440.000,"cc",28279.727,6.00,2827.973,1,6,0.100,35244.000,0.200,24135.000,0.300,4467.000,0.500,1050.000,1.000,544.000,5.000,0
"07/05/06","20:05:31","AMMA06",52812.000,"cc",28333.600,6.00,2833.360,1,6,0.100,25760.000,0.200,21632.000,0.300,4025.000,0.500,915.000,1.000,480.000,5.000,0
"07/05/06","20:05:37","AMMA06",75221.000,"cc",28314.775,6.00,2831.478,1,6,0.100,43209.000,0.200,25963.000,0.300,4570.000,0.500,977.000,1.000,502.000,5.000,0
"07/05/06","20:05:43","AMMA06",64572.000,"cc",28323.824,6.00,2832.383,1,6,0.100,35562.000,0.200,23475.000,0.300,4167.000,0.500,894.000,1.000,474.000,5.000,0
"07/05/06","20:05:49","AMMA06",54173.000,"cc",28289.111,6.00,2828.911,1,6,0.100,27526.000,0.200,21786.000,0.300,3661.000,0.500,762.000,1.000,438.000,5.000,0
"07/05/06","20:05:55","AMMA06",52375.000,"cc",28317.527,6.00,2831.753,1,6,0.100,26247.000,0.200,21358.000,0.300,3645.000,0.500,719.000,1.000,406.000,5.000,0
"07/05/06","20:06:01","AMMA06",54080.000,"cc",28340.850,6.00,2834.085,1,6,0.100,27745.000,0.200,21708.000,0.300,3561.000,0.500,706.000,1.000,360.000,5.000,0
"07/05/06","20:06:07","AMMA06",60748.000,"cc",28318.719,6.00,2831.872,1,6,0.100,32829.000,0.200,22902.000,0.300,3805.000,0.500,773.000,1.000,439.000,5.000,0
"07/05/06","20:06:13","AMMA06",49687.000,"cc",28287.666,6.00,2828.767,1,6,0.100,24299.000,0.200,20553.000,0.300,3545.000,0.500,852.000,1.000,438.000,5.000,0
"07/05/06","20:06:19","AMMA06",97759.000,"cc",28328.395,6.00,2832.840,1,6,0.100,58780.000,0.200,30709.000,0.300,6154.000,0.500,1405.000,1.000,711.000,5.000,0
"07/05/06","20:06:25","AMMA06",84733.000,"cc",28270.076,6.00,2827.008,1,6,0.100,50415.000,0.200,27546.000,0.300,5053.000,0.500,1135.000,1.000,584.000,5.000,0
"07/05/06","20:06:31","AMMA06",51048.000,"cc",28273.190,6.00,2827.319,1,6,0.100,25242.000,0.200,20999.000,0.300,3603.000,0.500,775.000,1.000,429.000,5.000,0
"07/05/06","20:06:37","AMMA06",48287.000,"cc",28380.307,6.00,2838.031,1,6,0.100,23623.000,0.200,20539.000,0.300,3206.000,0.500,579.000,1.000,340.000,5.000,0
"07/05/06","20:06:43","AMMA06",50943.000,"cc",28330.807,6.00,2833.081,1,6,0.100,25163.000,0.200,21093.000,0.300,3554.000,0.500,731.000,1.000,402.000,5.000,0
"07/05/06","20:06:49","AMMA06",63889.000,"cc",28359.447,6.00,2835.945,1,6,0.100,34908.000,0.200,23735.000,0.300,3944.000,0.500,841.000,1.000,461.000,5.000,0
"07/05/06","20:06:55","AMMA06",49202.000,"cc",28267.412,6.00,2826.742,1,6,0.100,23774.000,0.200,20818.000,0.300,3480.000,0.500,735.000,1.000,395.000,5.000,0
"07/05/06","20:07:01","AMMA06",48953.000,"cc",28348.268,6.00,2834.827,1,6,0.100,23617.000,0.200,20931.000,0.300,3365.000,0.500,661.000,1.000,379.000,5.000,0
"07/05/06","20:07:07","AMMA06",50086.000,"cc",28328.438,6.00,2832.844,1,6,0.100,24423.000,0.200,20741.000,0.300,3660.000,0.500,838.000,1.000,424.000,5.000,0
"07/05/06","20:07:13","AMMA06",60066.000,"cc",28327.555,6.00,2832.756,1,6,0.100,31336.000,0.200,23001.000,0.300,4187.000,0.500,1039.000,1.000,503.000,5.000,0
"07/05/06","20:07:19","AMMA06",50403.000,"cc",28326.414,6.00,2832.642,1,6,0.100,25177.000,0.200,20860.000,0.300,3368.000,0.500,626.000,1.000,372.000,5.000,0
"07/05/06","20:07:25","AMMA06",47589.000,"cc",28319.031,6.00,2831.903,1,6,0.100,23450.000,0.200,19904.000,0.300,3273.000,0.500,605.000,1.000,357.000,5.000,0
"07/05/06","20:07:31","AMMA06",47287.000,"cc",28326.707,6.00,2832.671,1,6,0.100,23179.000,0.200,19982.000,0.300,3147.000,0.500,594.000,1.000,385.000,5.000,0
"07/05/06","20:07:37","AMMA06",46401.000,"cc",28292.391,6.00,2829.239,1,6,0.100,23106.000,0.200,19121.000,0.300,3136.000,0.500,632.000,1.000,406.000,5.000,0
"07/05/06","20:07:43","AMMA06",49340.000,"cc",28287.207,6.00,2828.721,1,6,0.100,24512.000,0.200,19461.000,0.300,3748.000,0.500,1089.000,1.000,530.000,5.000,0
"07/05/06","20:07:49","AMMA06",47190.000,"cc",28348.443,6.00,2834.845,1,6,0.100,24257.000,0.200,18686.000,0.300,3113.000,0.500,734.000,1.000,400.000,5.000,0
"07/05/06","20:07:55","AMMA06",47105.000,"cc",28329.920,6.00,2832.992,1,6,0.100,24056.000,0.200,18641.000,0.300,3276.000,0.500,746.000,1.000,386.000,5.000,0
"07/05/06","20:08:01","AMMA06",47092.000,"cc",28314.197,6.00,2831.420,1,6,0.100,23944.000,0.200,18620.000,0.300,3285.000,0.500,808.000,1.000,435.000,5.000,0
"07/05/06","20:08:07","AMMA06",46044.000,"cc",28324.686,6.00,2832.469,1,6,0.100,23368.000,0.200,18744.000,0.300,2913.000,0.500,639.000,1.000,380.000,5.000,0
"07/05/06","20:08:13","AMMA06",44954.000,"cc",28308.272,6.00,2830.827,1,6,0.100,22778.000,0.200,18437.000,0.300,2824.000,0.500,572.000,1.000,343.000,5.000,0
"07/05/06","20:08:19","AMMA06",45583.000,"cc",28315.180,6.00,2831.518,1,6,0.100,23130.000,0.200,18572.000,0.300,2903.000,0.500,613.000,1.000,365.000,5.000,0
"07/05/06","20:08:25","AMMA06",47467.000,"cc",28333.336,6.00,2833.334,1,6,0.100,23857.000,0.200,18940.000,0.300,3309.000,0.500,901.000,1.000,460.000,5.000,0
"07/05/06","20:08:31","AMMA06",47923.000,"cc",28272.254,6.00,2827.226,1,6,0.100,24140.000,0.200,19130.000,0.300,3337.000,0.500,875.000,1.000,441.000,5.000,0
"07/05/06","20:08:37","AMMA06",46391.000,"cc",28325.625,6.00,2832.563,1,6,0.100,23666.000,0.200,18461.000,0.300,3136.000,0.500,718.000,1.000,410.000,5.000,0
"07/05/06","20:08:43","AMMA06",48020.000,"cc",28333.979,6.00,2833.398,1,6,0.100,24038.000,0.200,19213.000,0.300,3365.000,0.500,954.000,1.000,450.000,5.000,0
"07/05/06","20:08:49","AMMA06",46324.000,"cc",28319.316,6.00,2831.932,1,6,0.100,23329.000,0.200,18807.000,0.300,3069.000,0.500,724.000,1.000,395.000,5.000,0
"07/05/06","20:08:55","AMMA06",47741.000,"cc",28292.037,6.00,2829.204,1,6,0.100,24290.000,0.200,18738.000,0.300,3353.000,0.500,897.000,1.000,463.000,5.000,0
"07/05/06","20:09:01","AMMA06",50944.000,"cc",28292.285,6.00,2829.229,1,6,0.100,25535.000,0.200,19737.000,0.300,3873.000,0.500,1225.000,1.000,574.000,5.000,0
"07/05/06","20:09:07","AMMA06",52203.000,"cc",28359.039,6.00,2835.904,1,6,0.100,27108.000,0.200,19749.000,0.300,3739.000,0.500,1043.000,1.000,564.000,5.000,0
"07/05/06","20:09:13","AMMA06",46472.000,"cc",28379.977,6.00,2837.998,1,6,0.100,23607.000,0.200,18710.000,0.300,3026.000,0.500,723.000,1.000,406.000,5.000,0
"07/05/06","20:09:19","AMMA06",46700.000,"cc",28308.141,6.00,2830.814,1,6,0.100,23638.000,0.200,18940.000,0.300,3065.000,0.500,656.000,1.000,401.000,5.000,0
"07/05/06","20:09:25","AMMA06",45522.000,"cc",28256.285,6.00,2825.629,1,6,0.100,22848.000,0.200,18734.000,0.300,2912.000,0.500,662.000,1.000,366.000,5.000,0
"07/05/06","20:09:31","AMMA06",44869.000,"cc",28270.641,6.00,2827.064,1,6,0.100,22878.000,0.200,18180.000,0.300,2833.000,0.500,606.000,1.000,372.000,5.000,0
"07/05/06","20:09:37","AMMA06",45248.000,"cc",28346.699,6.00,2834.670,1,6,0.100,23182.000,0.200,18308.000,0.300,2798.000,0.500,583.000,1.000,377.000,5.000,0
"07/05/06","20:09:43","AMMA06",44845.000,"cc",28304.022,6.00,2830.402,1,6,0.100,22856.000,0.200,18187.000,0.300,2869.000,0.500,577.000,1.000,356.000,5.000,0
"07/05/06","20:09:49","AMMA06",44735.000,"cc",28304.900,6.00,2830.490,1,6,0.100,22789.000,0.200,18212.000,0.300,2803.000,0.500,580.000,1.000,350.000,5.000,1.000
"07/05/06","20:09:55","AMMA06",47084.000,"cc",28317.221,6.00,2831.722,1,6,0.100,23802.000,0.200,18563.000,0.300,3384.000,0.500,872.000,1.000,463.000,5.000,0
"07/05/06","20:10:01","AMMA06",46204.000,"cc",28382.576,6.00,2838.258,1,6,0.100,23492.000,0.200,18587.000,0.300,3038.000,0.500,683.000,1.000,404.000,5.000,0
"07/05/06","20:10:07","AMMA06",45977.000,"cc",28314.785,6.00,2831.479,1,6,0.100,23345.000,0.200,18367.000,0.300,3108.000,0.500,721.000,1.000,435.000,5.000,1.000
"07/05/06","20:10:13","AMMA06",45842.000,"cc",28316.982,6.00,2831.699,1,6,0.100,23386.000,0.200,18266.000,0.300,3049.000,0.500,751.000,1.000,390.000,5.000,0
"07/05/06","20:10:19","AMMA06",45031.000,"cc",28306.775,6.00,2830.678,1,6,0.100,23193.000,0.200,17993.000,0.300,2879.000,0.500,604.000,1.000,362.000,5.000,0
"07/05/06","20:10:25","AMMA06",44937.000,"cc",28303.434,6.00,2830.344,1,6,0.100,23037.000,0.200,18067.000,0.300,2867.000,0.500,590.000,1.000,376.000,5.000,0
"07/05/06","20:10:31","AMMA06",45220.000,"cc",28328.525,6.00,2832.853,1,6,0.100,23109.000,0.200,18091.000,0.300,2979.000,0.500,672.000,1.000,369.000,5.000,0
"07/05/06","20:10:37","AMMA06",44447.000,"cc",28298.541,6.00,2829.854,1,6,0.100,23099.000,0.200,17698.000,0.300,2720.000,0.500,607.000,1.000,323.000,5.000,0
"07/05/06","20:10:43","AMMA06",47041.000,"cc",28303.541,6.00,2830.354,1,6,0.100,24323.000,0.200,18389.000,0.300,3052.000,0.500,838.000,1.000,439.000,5.000,0
"07/05/06","20:10:49","AMMA06",44707.000,"cc",28298.102,6.00,2829.810,1,6,0.100,23231.000,0.200,17752.000,0.300,2691.000,0.500,642.000,1.000,391.000,5.000,0
"07/05/06","20:10:55","AMMA06",44310.000,"cc",28336.859,6.00,2833.686,1,6,0.100,23118.000,0.200,17651.000,0.300,2639.000,0.500,560.000,1.000,342.000,5.000,0
"07/05/06","20:11:01","AMMA06",46385.000,"cc",28290.967,6.00,2829.097,1,6,0.100,24012.000,0.200,18124.000,0.300,3024.000,0.500,803.000,1.000,422.000,5.000,0
"07/05/06","20:11:07","AMMA06",47049.000,"cc",28292.842,6.00,2829.284,1,6,0.100,24193.000,0.200,18342.000,0.300,3173.000,0.500,848.000,1.000,493.000,5.000,0
"07/05/06","20:11:13","AMMA06",44102.000,"cc",28358.131,6.00,2835.813,1,6,0.100,23254.000,0.200,17363.000,0.300,2551.000,0.500,553.000,1.000,381.000,5.000,0
"07/05/06","20:11:19","AMMA06",44815.000,"cc",28340.553,6.00,2834.055,1,6,0.100,23289.000,0.200,17550.000,0.300,2819.000,0.500,757.000,1.000,400.000,5.000,0
"07/05/06","20:11:25","AMMA06",43934.000,"cc",28248.797,6.00,2824.880,1,6,0.100,23083.000,0.200,17181.000,0.300,2677.000,0.500,613.000,1.000,380.000,5.000,0
"07/05/06","20:11:31","AMMA06",44480.000,"cc",28299.232,6.00,2829.923,1,6,0.100,23199.000,0.200,17568.000,0.300,2694.000,0.500,672.000,1.000,347.000,5.000,0
"07/05/06","20:11:37","AMMA06",44613.000,"cc",28310.867,6.00,2831.087,1,6,0.100,23372.000,0.200,17507.000,0.300,2657.000,0.500,694.000,1.000,383.000,5.000,0
"07/05/06","20:11:43","AMMA06",43809.000,"cc",28329.648,6.00,2832.965,1,6,0.100,23057.000,0.200,17143.000,0.300,2612.000,0.500,618.000,1.000,379.000,5.000,0
"07/05/06","20:11:49","AMMA06",43984.000,"cc",28300.115,6.00,2830.012,1,6,0.100,23170.000,0.200,17180.000,0.300,2673.000,0.500,575.000,1.000,386.000,5.000,0
"07/05/06","20:11:55","AMMA06",44321.000,"cc",28330.824,6.00,2833.083,1,6,0.100,23295.000,0.200,17356.000,0.300,2622.000,0.500,669.000,1.000,379.000,5.000,0
"07/05/06","20:12:01","AMMA06",43574.000,"cc",28294.072,6.00,2829.408,1,6,0.100,22964.000,0.200,17134.000,0.300,2521.000,0.500,567.000,1.000,388.000,5.000,0
"07/05/06","20:12:07","AMMA06",44641.000,"cc",28293.766,6.00,2829.377,1,6,0.100,23472.000,0.200,17219.000,0.300,2836.000,0.500,691.000,1.000,423.000,5.000,0
"07/05/06","20:12:13","AMMA06",43815.000,"cc",28348.106,6.00,2834.811,1,6,0.100,22682.000,0.200,17500.000,0.300,2636.000,0.500,614.000,1.000,383.000,5.000,0
"07/05/06","20:12:19","AMMA06",43823.000,"cc",28348.924,6.00,2834.893,1,6,0.100,22871.000,0.200,17335.000,0.300,2594.000,0.500,640.000,1.000,383.000,5.000,0
"07/05/06","20:12:25","AMMA06",44409.000,"cc",28323.096,6.00,2832.310,1,6,0.100,23187.000,0.200,17529.000,0.300,2672.000,0.500,661.000,1.000,360.000,5.000,0
"07/05/06","20:12:31","AMMA06",45041.000,"cc",28292.441,6.00,2829.244,1,6,0.100,23483.000,0.200,17476.000,0.300,2880.000,0.500,774.000,1.000,428.000,5.000,0
"07/05/06","20:12:37","AMMA06",43396.000,"cc",28326.570,6.00,2832.657,1,6,0.100,22689.000,0.200,17358.000,0.300,2475.000,0.500,558.000,1.000,316.000,5.000,0
"07/05/06","20:12:43","AMMA06",43806.000,"cc",28300.895,6.00,2830.090,1,6,0.100,22905.000,0.200,17201.000,0.300,2645.000,0.500,662.000,1.000,393.000,5.000,0
"07/05/06","20:12:49","AMMA06",44029.000,"cc",28331.172,6.00,2833.117,1,6,0.100,23137.000,0.200,17141.000,0.300,2704.000,0.500,668.000,1.000,379.000,5.000,0
"07/05/06","20:12:55","AMMA06",43367.000,"cc",28333.365,6.00,2833.337,1,6,0.100,22780.000,0.200,16961.000,0.300,2658.000,0.500,585.000,1.000,383.000,5.000,0
"07/05/06","20:13:01","AMMA06",43721.000,"cc",28328.875,6.00,2832.888,1,6,0.100,22745.000,0.200,17310.000,0.300,2650.000,0.500,651.000,1.000,365.000,5.000,0
"07/05/06","20:13:07","AMMA06",44017.000,"cc",28300.504,6.00,2830.051,1,6,0.100,22849.000,0.200,17424.000,0.300,2700.000,0.500,685.000,1.000,359.000,5.000,0
"07/05/06","20:13:13","AMMA06",44217.000,"cc",28347.162,6.00,2834.716,1,6,0.100,22853.000,0.200,17514.000,0.300,2800.000,0.500,667.000,1.000,383.000,5.000,0
"07/05/06","20:13:19","AMMA06",44618.000,"cc",28311.432,6.00,2831.143,1,6,0.100,23288.000,0.200,17471.000,0.300,2739.000,0.500,704.000,1.000,416.000,5.000,0
"07/05/06","20:13:25","AMMA06",44023.000,"cc",28314.645,6.00,2831.465,1,6,0.100,22952.000,0.200,17565.000,0.300,2546.000,0.500,584.000,1.000,376.000,5.000,0
"07/05/06","20:13:31","AMMA06",43195.000,"cc",28348.209,6.00,2834.821,1,6,0.100,22646.000,0.200,17067.000,0.300,2575.000,0.500,560.000,1.000,347.000,5.000,0
"07/05/06","20:13:37","AMMA06",43230.000,"cc",28310.162,6.00,2831.016,1,6,0.100,22474.000,0.200,17114.000,0.300,2633.000,0.500,618.000,1.000,391.000,5.000,0
"07/05/06","20:13:43","AMMA06",43938.000,"cc",28290.602,6.00,2829.060,1,6,0.100,22689.000,0.200,17592.000,0.300,2688.000,0.500,596.000,1.000,373.000,5.000,0
"07/05/06","20:13:49","AMMA06",44587.000,"cc",28287.106,6.00,2828.711,1,6,0.100,23074.000,0.200,17710.000,0.300,2697.000,0.500,700.000,1.000,406.000,5.000,0
"07/05/06","20:13:55","AMMA06",44022.000,"cc",28300.180,6.00,2830.018,1,6,0.100,22809.000,0.200,17570.000,0.300,2673.000,0.500,600.000,1.000,370.000,5.000,0
"07/05/06","20:14:01","AMMA06",43814.000,"cc",28255.742,6.00,2825.575,1,6,0.100,22617.000,0.200,17645.000,0.300,2628.000,0.500,569.000,1.000,355.000,5.000,0
"07/05/06","20:14:07","AMMA06",44125.000,"cc",28352.363,6.00,2835.237,1,6,0.100,22942.000,0.200,17538.000,0.300,2700.000,0.500,574.000,1.000,371.000,5.000,0
"07/05/06","20:14:13","AMMA06",44601.000,"cc",28369.129,6.00,2836.913,1,6,0.100,22896.000,0.200,17685.000,0.300,2901.000,0.500,693.000,1.000,426.000,5.000,0